• In Hungary
  • List of Countries
  • For 7 days
  • Water Temperature
  • Satellite Maps
  • Weather Map
  • News
  • Weather Widgets
  • user-avatar
    Login

    Hourly Weather Karpasia

    Today, 23 June, Saturday

    Time Temperature Precipitation Wind Pressure Humidity
    00:00 +26°C° 0 mm 6 mps 749 mmHg 72%
    01:00 +26°C° 0 mm 6 mps 748 mmHg 74%
    02:00 +26°C° 0 mm 8 mps 748 mmHg 74%
    03:00 +26°C° 0 mm 7 mps 748 mmHg 75%
    04:00 +26°C° 0 mm 7 mps 748 mmHg 77%
    05:00 +24°C° 0 mm 6 mps 748 mmHg 78%
    06:00 +27°C° 0 mm 5 mps 748 mmHg 72%
    07:00 +28°C° 0 mm 5 mps 748 mmHg 65%
    08:00 +29°C° 0 mm 5 mps 748 mmHg 58%
    09:00 +30°C° 0 mm 5 mps 749 mmHg 54%
    10:00 +32°C° 0 mm 6 mps 749 mmHg 50%
    11:00 +33°C° 0 mm 6 mps 749 mmHg 46%
    12:00 +34°C° 0 mm 6 mps 749 mmHg 45%
    13:00 +34°C° 0 mm 7 mps 748 mmHg 45%
    14:00 +34°C° 0 mm 7 mps 748 mmHg 45%
    15:00 +34°C° 0 mm 7 mps 748 mmHg 46%
    16:00 +33°C° 0 mm 7 mps 748 mmHg 48%
    17:00 +33°C° 0 mm 7 mps 748 mmHg 49%
    18:00 +30°C° 0 mm 7 mps 748 mmHg 55%
    19:00 +29°C° 0 mm 7 mps 748 mmHg 61%
    20:00 +28°C° 0 mm 7 mps 748 mmHg 66%
    21:00 +28°C° 0 mm 6 mps 748 mmHg 69%
    22:00 +27°C° 0 mm 6 mps 748 mmHg 72%
    23:00 +27°C° 0 mm 6 mps 748 mmHg 74%

    Tomorrow, 24 June, Sunday

    Time Temperature Precipitation Wind Pressure Humidity
    00:00 +26°C° 0 mm 5 mps 748 mmHg 76%
    01:00 +26°C° 0 mm 5 mps 748 mmHg 78%
    02:00 +26°C° 0 mm 5 mps 747 mmHg 79%
    03:00 +26°C° 0 mm 4 mps 747 mmHg 80%
    04:00 +26°C° 0 mm 4 mps 747 mmHg 81%
    05:00 +25°C° 0 mm 3 mps 747 mmHg 81%
    06:00 +27°C° 0 mm 3 mps 747 mmHg 75%
    07:00 +28°C° 0 mm 3 mps 747 mmHg 68%
    08:00 +29°C° 0 mm 3 mps 747 mmHg 61%
    09:00 +30°C° 0 mm 3 mps 748 mmHg 57%
    10:00 +31°C° 0 mm 3 mps 748 mmHg 53%
    11:00 +33°C° 0 mm 3 mps 748 mmHg 49%
    12:00 +34°C° 0 mm 4 mps 748 mmHg 50%
    13:00 +34°C° 0 mm 4 mps 748 mmHg 52%
    14:00 +34°C° 0 mm 5 mps 747 mmHg 53%
    15:00 +33°C° 0.1 mm 5 mps 747 mmHg 56%
    16:00 +33°C° 0.1 mm 5 mps 747 mmHg 59%
    17:00 +32°C° 0.1 mm 5 mps 747 mmHg 62%
    18:00 +32°C° 0 mm 5 mps 747 mmHg 65%
    19:00 +30°C° 0 mm 4 mps 747 mmHg 69%
    20:00 +29°C° 0 mm 4 mps 747 mmHg 72%
    21:00 +29°C° 0 mm 4 mps 747 mmHg 74%
    22:00 +28°C° 0 mm 4 mps 747 mmHg 75%
    23:00 +28°C° 0 mm 4 mps 747 mmHg 76%

    Day after tomorrow, 25 June, Monday

    Time Temperature Precipitation Wind Pressure Humidity
    00:00 +28°C° 0 mm 4 mps 747 mmHg 76%
    01:00 +28°C° 0 mm 3 mps 746 mmHg 76%
    02:00 +27°C° 0 mm 3 mps 746 mmHg 76%
    03:00 +27°C° 0 mm 3 mps 746 mmHg 76%
    04:00 +27°C° 0 mm 3 mps 746 mmHg 76%
    05:00 +27°C° 0 mm 3 mps 746 mmHg 76%
    06:00 +28°C° 0 mm 3 mps 746 mmHg 69%
    07:00 +30°C° 0 mm 3 mps 746 mmHg 61%
    08:00 +31°C° 0 mm 3 mps 747 mmHg 54%
    09:00 +33°C° 0 mm 3 mps 747 mmHg 51%
    10:00 +34°C° 0 mm 3 mps 747 mmHg 47%
    11:00 +35°C° 0 mm 3 mps 747 mmHg 44%
    12:00 +35°C° 0 mm 4 mps 747 mmHg 45%
    13:00 +35°C° 0 mm 5 mps 747 mmHg 45%
    14:00 +35°C° 0 mm 5 mps 747 mmHg 46%
    15:00 +35°C° 0 mm 5 mps 746 mmHg 47%
    16:00 +34°C° 0 mm 5 mps 746 mmHg 48%
    17:00 +34°C° 0 mm 5 mps 746 mmHg 50%
    18:00 +33°C° 0 mm 5 mps 746 mmHg 53%
    19:00 +32°C° 0 mm 5 mps 747 mmHg 57%
    20:00 +30°C° 0 mm 5 mps 747 mmHg 61%
    21:00 +30°C° 0 mm 4 mps 747 mmHg 63%
    22:00 +29°C° 0 mm 4 mps 747 mmHg 65%
    23:00 +29°C° 0 mm 4 mps 747 mmHg 68%

    26 June, Tuesday

    Time Temperature Precipitation Wind Pressure Humidity
    00:00 +28°C° 0 mm 4 mps 746 mmHg 69%
    01:00 +28°C° 0 mm 4 mps 746 mmHg 70%
    02:00 +28°C° 0 mm 4 mps 746 mmHg 71%
    03:00 +27°C° 0 mm 4 mps 746 mmHg 73%
    04:00 +27°C° 0 mm 4 mps 746 mmHg 74%
    05:00 +27°C° 0 mm 3 mps 746 mmHg 76%
    06:00 +28°C° 0 mm 3 mps 746 mmHg 69%
    07:00 +29°C° 0 mm 3 mps 746 mmHg 61%
    08:00 +31°C° 0 mm 3 mps 746 mmHg 54%
    09:00 +33°C° 0 mm 3 mps 747 mmHg 50%
    10:00 +34°C° 0 mm 3 mps 747 mmHg 46%
    11:00 +35°C° 0 mm 4 mps 747 mmHg 42%
    12:00 +35°C° 0 mm 4 mps 747 mmHg 43%
    13:00 +35°C° 0 mm 5 mps 747 mmHg 44%
    14:00 +35°C° 0 mm 5 mps 746 mmHg 45%
    15:00 +35°C° 0 mm 5 mps 746 mmHg 47%
    16:00 +34°C° 0 mm 5 mps 746 mmHg 50%
    17:00 +34°C° 0 mm 5 mps 746 mmHg 52%
    18:00 +33°C° 0 mm 6 mps 747 mmHg 56%
    19:00 +30°C° 0 mm 6 mps 747 mmHg 61%
    20:00 +29°C° 0 mm 6 mps 747 mmHg 65%
    21:00 +29°C° 0 mm 6 mps 747 mmHg 68%
    22:00 +28°C° 0 mm 6 mps 747 mmHg 71%
    23:00 +28°C° 0 mm 5 mps 748 mmHg 73%

    27 June, Wednesday

    Time Temperature Precipitation Wind Pressure Humidity
    00:00 +27°C° 0 mm 5 mps 747 mmHg 72%
    01:00 +27°C° 0 mm 5 mps 747 mmHg 71%
    02:00 +27°C° 0 mm 4 mps 747 mmHg 70%
    03:00 +27°C° 0 mm 4 mps 747 mmHg 66%
    04:00 +27°C° 0 mm 3 mps 747 mmHg 62%
    05:00 +27°C° 0 mm 3 mps 747 mmHg 58%
    06:00 +28°C° 0 mm 3 mps 747 mmHg 51%
    07:00 +30°C° 0 mm 2 mps 747 mmHg 43%
    08:00 +32°C° 0 mm 2 mps 747 mmHg 36%
    09:00 +34°C° 0 mm 3 mps 748 mmHg 36%
    10:00 +35°C° 0 mm 3 mps 748 mmHg 36%
    11:00 +36°C° 0 mm 4 mps 748 mmHg 36%
    12:00 +36°C° 0 mm 4 mps 748 mmHg 36%
    13:00 +36°C° 0 mm 5 mps 748 mmHg 36%
    14:00 +37°C° 0 mm 5 mps 747 mmHg 36%
    15:00 +36°C° 0 mm 5 mps 747 mmHg 35%
    16:00 +36°C° 0 mm 5 mps 747 mmHg 35%
    17:00 +36°C° 0 mm 6 mps 747 mmHg 34%
    18:00 +35°C° 0 mm 5 mps 747 mmHg 38%
    19:00 +34°C° 0 mm 5 mps 747 mmHg 43%
    20:00 +33°C° 0 mm 5 mps 747 mmHg 47%
    21:00 +32°C° 0 mm 5 mps 747 mmHg 46%
    22:00 +32°C° 0 mm 5 mps 747 mmHg 46%
    23:00 +32°C° 0 mm 4 mps 747 mmHg 45%

    28 June, Thursday

    Time Temperature Precipitation Wind Pressure Humidity
    00:00 +30°C° 0 mm 4 mps 747 mmHg 44%
    01:00 +30°C° 0 mm 4 mps 747 mmHg 43%
    02:00 +30°C° 0 mm 3 mps 746 mmHg 42%
    03:00 +30°C° 0 mm 3 mps 746 mmHg 42%
    04:00 +30°C° 0 mm 3 mps 746 mmHg 41%
    05:00 +29°C° 0 mm 3 mps 747 mmHg 41%
    06:00 +32°C° 0 mm 4 mps 747 mmHg 39%
    07:00 +34°C° 0 mm 4 mps 747 mmHg 36%
    08:00 +35°C° 0 mm 5 mps 747 mmHg 34%
    09:00 +36°C° 0 mm 5 mps 747 mmHg 32%
    10:00 +39°C° 0 mm 5 mps 747 mmHg 31%
    11:00 +40°C° 0 mm 5 mps 747 mmHg 29%
    12:00 +40°C° 0 mm 5 mps 747 mmHg 29%
    13:00 +40°C° 0 mm 6 mps 747 mmHg 29%
    14:00 +40°C° 0 mm 6 mps 746 mmHg 29%
    15:00 +40°C° 0 mm 6 mps 746 mmHg 31%
    16:00 +39°C° 0 mm 6 mps 746 mmHg 34%
    17:00 +38°C° 0 mm 6 mps 746 mmHg 36%
    18:00 +36°C° 0 mm 6 mps 746 mmHg 42%
    19:00 +34°C° 0 mm 6 mps 746 mmHg 48%
    20:00 +33°C° 0 mm 6 mps 747 mmHg 54%
    21:00 +32°C° 0 mm 6 mps 746 mmHg 58%
    22:00 +30°C° 0 mm 6 mps 746 mmHg 62%
    23:00 +30°C° 0 mm 6 mps 746 mmHg 66%
    Show more